Brookings, OR

6:44 PM PDT on April 21, 2018 (GMT -0700)
Brookings State

Weather History for KBOK - June, 2013

Change the Weather History Date:

Friday, June 28, 2013

  Actual Average Record
Temperature  
Mean Temperature 67 °F -  
Max Temperature 77 °F 69 °F 101 °F (1977)
Min Temperature 57 °F 51 °F 42 °F (1964)
Cooling Degree Days 2    
Growing Degree Days 17 (Base 50)    
Moisture  
Dew Point 58 °F    
Average Humidity 80    
Maximum Humidity 100    
Minimum Humidity 50    
Precipitation  
Precipitation 0.00 in - - ()
Sea Level Pressure  
Sea Level Pressure 30.12 in    
Wind  
Wind Speed 2 mph (WSW)    
Max Wind Speed 10 mph    
Max Gust Speed 16 mph    
Visibility 10 miles    
Events      
Averages and records for this station are not official NWS values.
T = Trace of Precipitation, MM = Missing Value Source: NWS Daily Summary

Daily Weather History Graph

Daily Weather History Graph

Search for Another Location

Airport or City:

Astronomy

Jun. 28, 2013 Rise Set
Actual Time 5:43 AM PDT 8:56 PM PDT
Civil Twilight 5:09 AM PDT 9:31 PM PDT
Nautical Twilight 4:25 AM PDT 10:15 PM PDT
Astronomical Twilight 3:31 AM PDT 11:08 PM PDT
Moon No Moon Rise 12:04 PM PDT (6/28)
Length of Visible Light 16h 21m
Length of Day
15h 13m
Waning Gibbous, 65% of the Moon is Illuminated
Jun 28
Waning Gibbous
Jun 29
Last Quarter
Jul 8
New
Jul 15
First Quarter
Jul 22
Full

Hourly Weather History & Observations

Time (PDT) Temp. Dew Point Humidity Pressure Visibility Wind Dir Wind Speed Gust Speed Precip Events Conditions
12:56 AM 59.0 °F 57.9 °F 96% 30.15 in 10.0 mi Calm Calm - N/A   Clear
1:56 AM 59.0 °F 57.9 °F 96% 30.15 in 10.0 mi Calm Calm - N/A   Clear
2:56 AM 59.0 °F 57.9 °F 96% 30.14 in 10.0 mi Calm Calm - N/A   Clear
3:56 AM 57.9 °F 57.9 °F 100% 30.14 in 10.0 mi Calm Calm - N/A   Clear
4:56 AM 57.9 °F 57.9 °F 100% 30.13 in 10.0 mi Calm Calm - N/A   Clear
5:56 AM 57.9 °F 56.8 °F 96% 30.13 in 10.0 mi Calm Calm - N/A   Clear
6:56 AM 57.9 °F 57.9 °F 100% 30.13 in 10.0 mi Calm Calm - N/A   Clear
7:56 AM 63.0 °F 59.9 °F 90% 30.13 in 10.0 mi Calm Calm - N/A   Clear
8:56 AM 68.9 °F 59.9 °F 73% 30.13 in 10.0 mi South 4.6 mph - N/A   Clear
9:56 AM 66.9 °F 61.0 °F 81% 30.14 in 10.0 mi WNW 6.9 mph - N/A   Clear
10:56 AM 70.9 °F 61.0 °F 71% 30.14 in 10.0 mi South 3.5 mph - N/A   Clear
11:56 AM 74.8 °F 61.9 °F 64% 30.14 in 10.0 mi Variable 4.6 mph - N/A   Clear
1:56 PM 73.9 °F 61.0 °F 64% 30.12 in 10.0 mi South 6.9 mph - N/A   Clear
2:56 PM 72.9 °F 61.0 °F 66% 30.11 in 10.0 mi Variable 6.9 mph - N/A   Clear
3:56 PM 72.0 °F 61.0 °F 68% 30.10 in 10.0 mi SSE 8.1 mph - N/A   Clear
4:56 PM 77.0 °F 57.9 °F 52% 30.10 in 10.0 mi NW 9.2 mph 16.1 mph N/A   Clear
5:56 PM 75.9 °F 55.9 °F 50% 30.10 in 10.0 mi WNW 8.1 mph - N/A   Clear
6:56 PM 72.0 °F 55.9 °F 57% 30.09 in 10.0 mi NW 10.4 mph - N/A   Clear
7:56 PM 70.0 °F 54.9 °F 59% 30.10 in 10.0 mi NW 8.1 mph - N/A   Clear
8:56 PM 63.0 °F 57.9 °F 84% 30.10 in 10.0 mi SE 4.6 mph - N/A   Clear
9:56 PM 61.0 °F 57.9 °F 90% 30.11 in 10.0 mi Calm Calm - N/A   Clear
10:56 PM 59.9 °F 56.8 °F 90% 30.11 in 10.0 mi Calm Calm - N/A   Clear
11:56 PM 59.9 °F 56.8 °F 90% 30.10 in 10.0 mi Calm Calm - N/A   Clear